Sarasota, FL

10:21 AM EDT on June 27, 2017 (GMT -0400)
Sarasota-bradenton

Weather History for KSRQ - December, 2013

Change the Weather History Date:

Friday, December 20, 2013

  Actual Average Record
Temperature  
Mean Temperature 72 °F 63 °F  
Max Temperature 85 °F 72 °F 86 °F (1990)
Min Temperature 58 °F 53 °F 28 °F (1981)
Degree Days  
Heating Degree Days 0 4  
Month to date heating degree days 20 67  
Since 1 July heating degree days 38 100  
Cooling Degree Days 7 2  
Month to date cooling degree days 93 54  
Year to date cooling degree days 3721 3354  
Growing Degree Days 22 (Base 50)    
Moisture  
Dew Point 61 °F    
Average Humidity 73    
Maximum Humidity 87    
Minimum Humidity 51    
Precipitation  
Precipitation 0.00 in 0.11 in 1.77 in (1940)
Month to date precipitation 0.03 1.60  
Year to date precipitation 52.49 52.08  
Sea Level Pressure  
Sea Level Pressure 30.13 in    
Wind  
Wind Speed 9 mph (ESE)    
Max Wind Speed 18 mph    
Max Gust Speed 23 mph    
Visibility 10 miles    
Events      
T = Trace of Precipitation, MM = Missing Value Source: NWS Daily Summary

Daily Weather History Graph

Daily Weather History Graph

Search for Another Location

Airport or City:

Trip Planner

Search our weather history database for the weather conditions in past years. The results will help you decide how hot, cold, wet, or windy it might be!

Date:

Astronomy

Dec. 20, 2013 Rise Set
Actual Time 7:15 AM EST 5:40 PM EST
Civil Twilight 6:49 AM EST 6:06 PM EST
Nautical Twilight 6:20 AM EST 6:35 PM EST
Astronomical Twilight 5:52 AM EST 7:03 PM EST
Moon 8:45 PM EST (12/20) 9:21 AM EST (12/20)
Length of Visible Light 11h 16m
Length of Day
10h 24m
Waning Gibbous, 90% of the Moon is Illuminated
Dec 20
Waning Gibbous
Dec 25
Last Quarter
Jan 1
New
Jan 7
First Quarter
Jan 15
Full

Hourly Weather History & Observations

Time (EST) Temp. Heat Index Dew Point Humidity Pressure Visibility Wind Dir Wind Speed Gust Speed Precip Events Conditions
12:53 AM 61.0 °F - 55.0 °F 81% 30.16 in 10.0 mi East 8.1 mph - N/A   Clear
1:53 AM 60.1 °F - 54.0 °F 80% 30.15 in 10.0 mi East 5.8 mph - N/A   Clear
2:53 AM 59.0 °F - 55.0 °F 87% 30.14 in 10.0 mi East 6.9 mph - N/A   Clear
3:53 AM 59.0 °F - 55.0 °F 87% 30.13 in 10.0 mi East 6.9 mph - N/A   Partly Cloudy
4:53 AM 59.0 °F - 55.0 °F 87% 30.13 in 10.0 mi East 6.9 mph - N/A   Partly Cloudy
5:53 AM 60.1 °F - 55.0 °F 83% 30.14 in 10.0 mi East 6.9 mph - N/A   Clear
6:53 AM 60.1 °F - 55.9 °F 86% 30.15 in 10.0 mi East 5.8 mph - N/A   Clear
7:53 AM 62.1 °F - 57.0 °F 84% 30.16 in 10.0 mi East 6.9 mph - N/A   Partly Cloudy
8:53 AM 66.0 °F - 59.0 °F 78% 30.17 in 10.0 mi East 10.4 mph - N/A   Scattered Clouds
9:53 AM 73.9 °F - 61.0 °F 64% 30.18 in 10.0 mi ESE 13.8 mph - N/A   Clear
10:53 AM 79.0 °F - 63.0 °F 58% 30.17 in 10.0 mi SE 13.8 mph - N/A   Clear
11:53 AM 82.0 °F 83.4 °F 64.0 °F 54% 30.14 in 10.0 mi ESE 16.1 mph - N/A   Clear
12:53 PM 82.9 °F 84.4 °F 64.0 °F 53% 30.11 in 10.0 mi ESE 11.5 mph - N/A   Clear
1:53 PM 82.9 °F 84.6 °F 64.9 °F 54% 30.09 in 10.0 mi SE 9.2 mph 19.6 mph N/A   Mostly Cloudy
2:53 PM 84.0 °F 85.8 °F 64.9 °F 53% 30.08 in 10.0 mi ESE 10.4 mph - N/A   Scattered Clouds
3:53 PM 82.9 °F 84.6 °F 64.9 °F 54% 30.08 in 10.0 mi SE 9.2 mph - N/A   Overcast
4:53 PM 81.0 °F 82.7 °F 64.9 °F 58% 30.08 in 10.0 mi East 6.9 mph - N/A   Overcast
5:53 PM 73.9 °F - 66.0 °F 76% 30.10 in 10.0 mi West 3.5 mph - N/A   Scattered Clouds
6:53 PM 71.1 °F - 66.0 °F 84% 30.12 in 10.0 mi Calm Calm - N/A   Mostly Cloudy
7:53 PM 75.9 °F - 66.0 °F 71% 30.13 in 10.0 mi ESE 8.1 mph - N/A   Mostly Cloudy
8:53 PM 73.9 °F - 66.0 °F 76% 30.14 in 10.0 mi ESE 10.4 mph - N/A   Clear
9:53 PM 73.0 °F - 64.9 °F 76% 30.13 in 10.0 mi ESE 10.4 mph - N/A   Clear
10:53 PM 72.0 °F - 64.9 °F 78% 30.14 in 10.0 mi ESE 9.2 mph - N/A   Clear
11:53 PM 70.0 °F - 64.9 °F 84% 30.13 in 10.0 mi ESE 9.2 mph - N/A   Clear